Location: Unspecified
(0.0000°N, 0.0000°E)
Time: 10:11:07
(UTC+00:00)

OTV 5 (USA 277) - Visible Passes

Search period start: 16 July 2019 00:00
Search period end: 26 July 2019 00:00
Orbit: 299 x 335 km, 54.5° (Epoch: 13 July)

Date Brightness Start Highest point End Pass type
(mag) Time Alt. Az. Time Alt. Az. Time Alt. Az.
18 Jul ? 19:26:42 10° N 19:27:30 15° NNE 19:27:30 15° NNE visible
19 Jul ? 19:40:39 10° NW 19:42:16 30° NW 19:42:16 30° NW visible
20 Jul ? 19:56:30 10° W 19:57:07 12° WSW 19:57:07 12° WSW visible
21 Jul ? 18:35:37 10° NNW 18:38:19 47° ENE 18:41:00 10° SE visible
22 Jul ? 18:50:24 10° WNW 18:52:49 27° WSW 18:55:14 10° S visible
25 Jul ? 05:05:58 12° S 05:07:56 28° ESE 05:10:14 10° ENE visible
